User: anonymous   Login
Location: Monteux
(44.0348°N, 4.9972°E)
Time: 05:58:27
(UTC+00:00)
Language:

BREEZE-M DEB (TANK) - Orbit

View from above orbital plane
View from above orbital plane
View from above satellite
View from above satellite

Ground track
Ground track

The orbit data is extracted from the following two-line orbital elements,

1 37828U 11054C   21055.47326035  .00001610  00000-0  46203-3 0  9998
2 37828  49.3788 198.4794 5568699 125.1622 300.3830  4.67444860156246
Epoch (UTC): 24 February 2021 11:21:29
Eccentricity: 0.5568699
inclination: 49.3788°
perigee height: 317 km
apogee height: 17145 km
right ascension of ascending node: 198.4794°
argument of perigee: 125.1622°
revolutions per day: 4.67444860
mean anomaly at epoch: 300.3830°
orbit number at epoch: 15624

The dashed part of the orbit path shows where the satellite is in the earth's shadow,  

DLR